Terminal Aerodrome Forecast
Issued by NWS Grand Forks, ND

Home | Current Version | Previous Version | Text Only | Print | Product List | Glossary Off
Versions: 1 2 3 4 5 6 7 8 9 10 11 12 13

000
FTUS43 KFGF 270500
TAFFAR
TAF
KFAR 270520Z 2706/2806 34006KT P6SM FEW250
     FM271100 26008KT P6SM BKN050
     FM271500 21005KT P6SM OVC025=

USA.gov is the U.S. government's official web portal to all federal, state and local government web resources and services.